Time,TemperatureF,DewpointF,PressureIn,WindDirection,WindDirectionDegrees,WindSpeedMPH,WindSpeedGustMPH,Humidity,HourlyPrecipIn,Conditions,Clouds,dailyrainin,SoftwareType,DateUTC
2013-08-28 00:00:00,74.3,57.6,29.96,SSE,164,0.0,0.0,56,0.00,,---,0.00,VWS V13.01,2013-08-28 04:00:00,
2013-08-28 00:01:00,74.3,57.1,29.96,SSE,164,0.0,0.0,55,0.00,,---,0.00,VWS V13.01,2013-08-28 04:01:00,
2013-08-28 00:02:00,74.3,57.1,29.96,SSE,164,0.0,0.0,55,0.00,,---,0.00,VWS V13.01,2013-08-28 04:02:00,
2013-08-28 00:07:00,74.3,57.1,29.96,SSE,164,0.0,0.0,55,0.00,,---,0.00,VWS V13.01,2013-08-28 04:07:00,
2013-08-28 00:12:00,74.1,56.9,29.96,SSE,164,0.0,0.0,55,0.00,,---,0.00,VWS V13.01,2013-08-28 04:12:00,
2013-08-28 00:17:00,73.9,56.8,29.96,SSE,164,0.0,0.0,55,0.00,,---,0.00,VWS V13.01,2013-08-28 04:17:00,
2013-08-28 00:22:00,73.9,56.8,29.96,SSE,164,0.0,0.0,55,0.00,,---,0.00,VWS V13.01,2013-08-28 04:22:00,
2013-08-28 00:27:00,73.8,56.6,29.96,SSE,164,0.0,0.0,55,0.00,,---,0.00,VWS V13.01,2013-08-28 04:27:00,
2013-08-28 00:32:00,73.8,56.6,29.96,SSE,164,0.0,0.0,55,0.00,,---,0.00,VWS V13.01,2013-08-28 04:32:00,
2013-08-28 00:37:00,73.8,57.1,29.96,SSE,164,0.0,0.0,56,0.00,,---,0.00,VWS V13.01,2013-08-28 04:37:00,
2013-08-28 00:42:00,73.8,57.1,29.96,SSE,164,0.0,0.0,56,0.00,,---,0.00,VWS V13.01,2013-08-28 04:42:00,
2013-08-28 00:47:00,73.6,56.4,29.96,SSE,164,0.0,0.0,55,0.00,,---,0.00,VWS V13.01,2013-08-28 04:47:00,
2013-08-28 00:52:00,73.4,56.8,29.96,SSE,164,0.0,0.0,56,0.00,,---,0.00,VWS V13.01,2013-08-28 04:52:00,
2013-08-28 00:57:00,73.4,56.3,29.96,SSE,164,0.0,0.0,55,0.00,,---,0.00,VWS V13.01,2013-08-28 04:57:00,
2013-08-28 01:02:00,73.2,56.6,29.96,SSE,164,0.0,0.0,56,0.00,,---,0.00,VWS V13.01,2013-08-28 05:02:00,
2013-08-28 01:07:00,73.0,56.4,29.96,SSE,164,0.0,0.0,56,0.00,,---,0.00,VWS V13.01,2013-08-28 05:07:00,
2013-08-28 01:12:00,73.0,56.4,29.96,SSE,152,0.0,0.0,56,0.00,,---,0.00,VWS V13.01,2013-08-28 05:12:00,
2013-08-28 01:17:00,73.0,56.9,29.96,SSE,152,0.0,0.0,57,0.00,,---,0.00,VWS V13.01,2013-08-28 05:17:00,
2013-08-28 01:22:00,73.0,56.4,29.96,SSE,152,0.0,0.0,56,0.00,,---,0.00,VWS V13.01,2013-08-28 05:22:00,
2013-08-28 01:27:00,73.0,56.9,29.96,SSE,152,0.0,0.0,57,0.00,,---,0.00,VWS V13.01,2013-08-28 05:27:00,
2013-08-28 01:32:00,73.0,56.9,29.96,SSW,200,0.0,0.0,57,0.00,,---,0.00,VWS V13.01,2013-08-28 05:32:00,
2013-08-28 01:37:00,73.0,56.4,29.96,SSW,200,0.0,0.0,56,0.00,,---,0.00,VWS V13.01,2013-08-28 05:37:00,
2013-08-28 01:42:00,73.0,56.4,29.96,SSW,200,0.0,0.0,56,0.00,,---,0.00,VWS V13.01,2013-08-28 05:42:00,
2013-08-28 01:47:00,73.0,56.4,29.96,SSW,200,0.0,0.0,56,0.00,,---,0.00,VWS V13.01,2013-08-28 05:47:00,
2013-08-28 01:52:00,73.0,56.4,29.96,SSW,200,0.0,0.0,56,0.00,,---,0.00,VWS V13.01,2013-08-28 05:52:00,
2013-08-28 01:57:00,72.9,56.3,29.96,SSW,200,0.0,0.0,56,0.00,,---,0.00,VWS V13.01,2013-08-28 05:57:00,
2013-08-28 02:02:00,72.7,56.1,29.96,SSW,200,0.0,0.0,56,0.00,,---,0.00,VWS V13.01,2013-08-28 06:02:00,
2013-08-28 02:07:00,72.5,55.9,29.96,SSW,200,0.0,0.0,56,0.00,,---,0.00,VWS V13.01,2013-08-28 06:07:00,
2013-08-28 02:12:00,72.3,55.8,29.96,SSW,200,0.0,0.0,56,0.00,,---,0.00,VWS V13.01,2013-08-28 06:12:00,
2013-08-28 02:17:00,72.3,55.8,29.96,SSW,200,0.0,0.0,56,0.00,,---,0.00,VWS V13.01,2013-08-28 06:17:00,
2013-08-28 02:22:00,72.3,56.2,29.96,SSW,200,0.0,0.0,57,0.00,,---,0.00,VWS V13.01,2013-08-28 06:22:00,
2013-08-28 02:27:00,72.3,55.8,29.96,SSW,200,0.0,0.0,56,0.00,,---,0.00,VWS V13.01,2013-08-28 06:27:00,
2013-08-28 02:32:00,72.3,55.8,29.96,SSW,200,0.0,0.0,56,0.00,,---,0.00,VWS V13.01,2013-08-28 06:32:00,
2013-08-28 02:37:00,72.1,55.6,29.96,SSW,200,0.0,0.0,56,0.00,,---,0.00,VWS V13.01,2013-08-28 06:37:00,
2013-08-28 02:42:00,72.0,54.9,29.96,SSW,200,0.0,0.0,55,0.00,,---,0.00,VWS V13.01,2013-08-28 06:42:00,
2013-08-28 02:47:00,71.8,54.8,29.96,SSW,200,0.0,0.0,55,0.00,,---,0.00,VWS V13.01,2013-08-28 06:47:00,
2013-08-28 02:52:00,71.6,54.6,29.96,SSW,200,0.0,0.0,55,0.00,,---,0.00,VWS V13.01,2013-08-28 06:52:00,
2013-08-28 02:57:00,71.4,54.9,29.96,SSW,200,0.0,0.0,56,0.00,,---,0.00,VWS V13.01,2013-08-28 06:57:00,
2013-08-28 03:02:00,71.4,55.4,29.96,SSW,200,0.0,0.0,57,0.00,,---,0.00,VWS V13.01,2013-08-28 07:02:00,
2013-08-28 03:07:00,71.2,55.2,29.96,SSW,200,0.0,0.0,57,0.00,,---,0.00,VWS V13.01,2013-08-28 07:07:00,
2013-08-28 03:12:00,71.2,55.2,29.96,SSW,200,0.0,0.0,57,0.00,,---,0.00,VWS V13.01,2013-08-28 07:12:00,
2013-08-28 03:17:00,71.1,55.5,29.96,SSW,200,0.0,0.0,58,0.00,,---,0.00,VWS V13.01,2013-08-28 07:17:00,
2013-08-28 03:22:00,71.1,55.5,29.96,SSW,200,0.0,0.0,58,0.00,,---,0.00,VWS V13.01,2013-08-28 07:22:00,
2013-08-28 03:27:00,71.1,55.5,29.96,SSW,200,0.0,0.0,58,0.00,,---,0.00,VWS V13.01,2013-08-28 07:27:00,
2013-08-28 03:32:00,71.1,56.0,29.96,SSW,200,0.0,0.0,59,0.00,,---,0.00,VWS V13.01,2013-08-28 07:32:00,
2013-08-28 03:37:00,71.1,56.0,29.96,SSW,200,0.0,0.0,59,0.00,,---,0.00,VWS V13.01,2013-08-28 07:37:00,
2013-08-28 03:42:00,70.9,56.3,29.96,SSW,200,0.0,0.0,60,0.00,,---,0.00,VWS V13.01,2013-08-28 07:42:00,
2013-08-28 03:47:00,70.9,56.8,29.96,SSW,200,0.0,0.0,61,0.00,,---,0.00,VWS V13.01,2013-08-28 07:47:00,
2013-08-28 03:52:00,70.9,56.8,29.96,SSW,200,0.0,0.0,61,0.00,,---,0.00,VWS V13.01,2013-08-28 07:52:00,
2013-08-28 03:57:00,70.9,56.8,29.96,SSW,200,0.0,0.0,61,0.00,,---,0.00,VWS V13.01,2013-08-28 07:57:00,
2013-08-28 04:02:00,71.1,57.0,29.96,SSW,200,0.0,0.0,61,0.00,,---,0.00,VWS V13.01,2013-08-28 08:02:00,
2013-08-28 04:07:00,71.1,57.4,29.96,SSW,200,0.0,0.0,62,0.00,,---,0.00,VWS V13.01,2013-08-28 08:07:00,
2013-08-28 04:12:00,71.1,57.4,29.96,SSW,200,0.0,0.0,62,0.00,,---,0.00,VWS V13.01,2013-08-28 08:12:00,
2013-08-28 04:17:00,70.9,57.2,29.96,SSW,200,0.0,0.0,62,0.00,,---,0.00,VWS V13.01,2013-08-28 08:17:00,
2013-08-28 04:22:00,70.9,57.2,29.96,SSW,200,0.0,0.0,62,0.00,,---,0.00,VWS V13.01,2013-08-28 08:22:00,
2013-08-28 04:27:00,70.9,57.2,29.96,SSW,200,0.0,0.0,62,0.00,,---,0.00,VWS V13.01,2013-08-28 08:27:00,
2013-08-28 04:32:00,70.9,57.2,29.96,SSW,200,0.0,0.0,62,0.00,,---,0.00,VWS V13.01,2013-08-28 08:32:00,
2013-08-28 04:37:00,70.9,57.2,29.96,SSW,200,0.0,0.0,62,0.00,,---,0.00,VWS V13.01,2013-08-28 08:37:00,
2013-08-28 04:42:00,70.7,57.1,29.96,SSW,200,0.0,0.0,62,0.00,,---,0.00,VWS V13.01,2013-08-28 08:42:00,
2013-08-28 04:47:00,70.7,57.1,29.96,SSW,200,0.0,0.0,62,0.00,,---,0.00,VWS V13.01,2013-08-28 08:47:00,
2013-08-28 04:52:00,70.7,57.1,29.96,SSW,200,0.0,0.0,62,0.00,,---,0.00,VWS V13.01,2013-08-28 08:52:00,
2013-08-28 04:57:00,70.7,57.1,29.96,SSW,200,0.0,0.0,62,0.00,,---,0.00,VWS V13.01,2013-08-28 08:57:00,
2013-08-28 05:02:00,70.9,57.2,29.96,SSW,200,0.0,0.0,62,0.00,,---,0.00,VWS V13.01,2013-08-28 09:02:00,
2013-08-28 05:07:00,70.9,57.7,29.96,SSW,200,0.0,0.0,63,0.00,,---,0.00,VWS V13.01,2013-08-28 09:07:00,
2013-08-28 05:12:00,70.9,57.7,29.96,SSW,200,0.0,0.0,63,0.00,,---,0.00,VWS V13.01,2013-08-28 09:12:00,
2013-08-28 05:17:00,70.9,57.7,29.96,SSW,200,0.0,0.0,63,0.00,,---,0.00,VWS V13.01,2013-08-28 09:17:00,
2013-08-28 05:22:00,70.7,57.5,29.96,SSW,200,0.0,0.0,63,0.00,,---,0.00,VWS V13.01,2013-08-28 09:22:00,
2013-08-28 05:27:00,70.7,57.5,29.96,SSW,200,0.0,0.0,63,0.00,,---,0.00,VWS V13.01,2013-08-28 09:27:00,
2013-08-28 05:32:00,70.7,57.5,29.96,SSW,200,0.0,0.0,63,0.00,,---,0.00,VWS V13.01,2013-08-28 09:32:00,
2013-08-28 05:34:00,70.7,57.5,29.96,SSW,200,0.0,0.0,63,0.00,,---,0.00,VWS V13.01,2013-08-28 09:34:00,
2013-08-28 05:39:00,70.5,57.3,29.96,SSW,200,0.0,0.0,63,0.00,,---,0.00,VWS V13.01,2013-08-28 09:39:00,
2013-08-28 05:44:00,70.5,57.3,29.96,SSW,200,0.0,0.0,63,0.00,,---,0.00,VWS V13.01,2013-08-28 09:44:00,
2013-08-28 05:49:00,70.5,57.3,29.96,SSW,200,0.0,0.0,63,0.00,,---,0.00,VWS V13.01,2013-08-28 09:49:00,
2013-08-28 05:54:00,70.5,57.3,29.96,SSW,200,0.0,0.0,63,0.00,,---,0.00,VWS V13.01,2013-08-28 09:54:00,
2013-08-28 05:59:00,70.5,57.8,29.96,SSW,200,0.0,0.0,64,0.00,,---,0.00,VWS V13.01,2013-08-28 09:59:00,
2013-08-28 06:04:00,70.3,57.6,29.96,SSW,200,0.0,0.0,64,0.00,,---,0.00,VWS V13.01,2013-08-28 10:04:00,
2013-08-28 06:09:00,70.3,57.6,29.96,SSW,200,0.0,0.0,64,0.00,,---,0.00,VWS V13.01,2013-08-28 10:09:00,
2013-08-28 06:14:00,70.2,57.9,29.96,SSW,200,0.0,0.0,65,0.00,,---,0.00,VWS V13.01,2013-08-28 10:14:00,
2013-08-28 06:19:00,70.2,57.9,29.96,SSW,200,0.0,0.0,65,0.00,,---,0.00,VWS V13.01,2013-08-28 10:19:00,
2013-08-28 06:24:00,70.2,57.9,29.96,SSW,200,0.0,0.0,65,0.00,,---,0.00,VWS V13.01,2013-08-28 10:24:00,
2013-08-28 06:29:00,70.2,58.3,29.96,SSW,200,0.0,0.0,66,0.00,,---,0.00,VWS V13.01,2013-08-28 10:29:00,
2013-08-28 06:34:00,70.2,58.3,29.96,South,185,0.0,0.0,66,0.00,,---,0.00,VWS V13.01,2013-08-28 10:34:00,
2013-08-28 06:39:00,70.2,58.3,29.96,South,185,0.0,0.0,66,0.00,,---,0.00,VWS V13.01,2013-08-28 10:39:00,
2013-08-28 06:44:00,70.2,58.7,29.96,South,185,0.0,0.0,67,0.00,,---,0.00,VWS V13.01,2013-08-28 10:44:00,
2013-08-28 06:49:00,70.2,58.3,29.96,South,185,0.0,0.0,66,0.00,,---,0.00,VWS V13.01,2013-08-28 10:49:00,
2013-08-28 06:54:00,70.3,58.5,29.96,South,185,0.0,0.0,66,0.00,,---,0.00,VWS V13.01,2013-08-28 10:54:00,
2013-08-28 06:59:00,70.3,58.5,29.96,South,185,0.0,0.0,66,0.00,,---,0.00,VWS V13.01,2013-08-28 10:59:00,
2013-08-28 07:04:00,70.3,58.9,29.96,South,185,0.0,0.0,67,0.00,,---,0.00,VWS V13.01,2013-08-28 11:04:00,
2013-08-28 07:09:00,70.3,58.9,29.96,South,185,0.0,0.0,67,0.00,,---,0.00,VWS V13.01,2013-08-28 11:09:00,
2013-08-28 07:14:00,70.3,58.9,29.96,South,185,0.0,0.0,67,0.00,,---,0.00,VWS V13.01,2013-08-28 11:14:00,
2013-08-28 07:19:00,70.3,58.9,29.96,South,185,0.0,0.0,67,0.00,,---,0.00,VWS V13.01,2013-08-28 11:19:00,
2013-08-28 07:23:00,70.3,58.9,29.96,South,185,0.0,0.0,67,0.00,,---,0.00,VWS V13.01,2013-08-28 11:23:00,
2013-08-28 07:28:00,70.3,58.9,29.96,South,185,0.0,0.0,67,0.00,,---,0.00,VWS V13.01,2013-08-28 11:28:00,
2013-08-28 07:33:00,70.3,59.3,29.96,South,185,0.0,0.0,68,0.00,,---,0.00,VWS V13.01,2013-08-28 11:33:00,
2013-08-28 07:38:00,70.5,59.5,29.96,South,185,0.0,0.0,68,0.00,,---,0.00,VWS V13.01,2013-08-28 11:38:00,
2013-08-28 07:43:00,70.5,59.5,29.96,South,185,0.0,0.0,68,0.00,,---,0.00,VWS V13.01,2013-08-28 11:43:00,
2013-08-28 07:48:00,70.7,59.6,29.96,South,185,0.0,0.0,68,0.00,,---,0.00,VWS V13.01,2013-08-28 11:48:00,
2013-08-28 07:53:00,70.7,59.6,29.96,South,185,0.0,0.0,68,0.00,,---,0.00,VWS V13.01,2013-08-28 11:53:00,
2013-08-28 07:58:00,70.9,59.4,29.96,South,185,0.0,0.0,67,0.00,,---,0.00,VWS V13.01,2013-08-28 11:58:00,
2013-08-28 08:03:00,70.9,59.4,29.96,South,185,0.0,0.0,67,0.00,,---,0.00,VWS V13.01,2013-08-28 12:03:00,
2013-08-28 08:08:00,71.1,59.6,29.96,South,185,0.0,0.0,67,0.00,,---,0.00,VWS V13.01,2013-08-28 12:08:00,
2013-08-28 08:13:00,71.2,59.7,29.96,South,185,0.0,0.0,67,0.00,,---,0.00,VWS V13.01,2013-08-28 12:13:00,
2013-08-28 08:18:00,71.2,59.3,29.96,South,185,0.0,0.0,66,0.00,,---,0.00,VWS V13.01,2013-08-28 12:18:00,
2013-08-28 08:24:00,71.4,59.5,29.96,South,185,0.0,0.0,66,0.00,,---,0.00,VWS V13.01,2013-08-28 12:24:00,
2013-08-28 08:29:00,71.4,59.9,29.96,South,185,0.0,0.0,67,0.00,,---,0.00,VWS V13.01,2013-08-28 12:29:00,
2013-08-28 08:33:00,71.6,60.1,29.96,South,185,0.0,0.0,67,0.00,,---,0.00,VWS V13.01,2013-08-28 12:33:00,
2013-08-28 08:38:00,71.8,60.2,29.96,South,185,0.0,0.0,67,0.00,,---,0.00,VWS V13.01,2013-08-28 12:38:00,
2013-08-28 08:43:00,71.8,60.2,29.96,South,185,0.0,0.0,67,0.00,,---,0.00,VWS V13.01,2013-08-28 12:43:00,
2013-08-28 08:48:00,71.8,60.2,29.96,South,185,0.0,0.0,67,0.00,,---,0.00,VWS V13.01,2013-08-28 12:48:00,
2013-08-28 08:53:00,71.8,60.2,29.96,South,185,0.0,0.0,67,0.00,,---,0.00,VWS V13.01,2013-08-28 12:53:00,
2013-08-28 08:58:00,72.0,60.4,29.96,South,185,0.0,0.0,67,0.00,,---,0.00,VWS V13.01,2013-08-28 12:58:00,
2013-08-28 09:03:00,72.1,60.6,29.96,South,185,0.0,0.0,67,0.00,,---,0.00,VWS V13.01,2013-08-28 13:03:00,
2013-08-28 09:08:00,72.1,60.6,29.96,South,185,0.0,0.0,67,0.00,,---,0.00,VWS V13.01,2013-08-28 13:08:00,
2013-08-28 09:13:00,72.5,60.9,29.96,South,185,0.0,0.0,67,0.00,,---,0.00,VWS V13.01,2013-08-28 13:13:00,
2013-08-28 09:18:00,72.7,61.5,29.96,South,185,0.0,0.0,68,0.00,,---,0.00,VWS V13.01,2013-08-28 13:18:00,
2013-08-28 09:23:00,72.9,61.3,29.96,South,185,0.0,0.0,67,0.00,,---,0.00,VWS V13.01,2013-08-28 13:23:00,
2013-08-28 09:28:00,73.0,61.5,29.96,South,185,0.0,0.0,67,0.00,,---,0.00,VWS V13.01,2013-08-28 13:28:00,
2013-08-28 09:33:00,73.0,61.5,29.96,South,185,0.0,0.0,67,0.00,,---,0.00,VWS V13.01,2013-08-28 13:33:00,
2013-08-28 09:38:00,73.2,61.6,29.96,South,185,0.0,0.0,67,0.00,,---,0.00,VWS V13.01,2013-08-28 13:38:00,
2013-08-28 09:43:00,73.4,61.8,29.96,South,185,0.0,0.0,67,0.00,,---,0.00,VWS V13.01,2013-08-28 13:43:00,
2013-08-28 09:48:00,73.6,62.0,29.96,South,185,0.0,0.0,67,0.00,,---,0.00,VWS V13.01,2013-08-28 13:48:00,
2013-08-28 09:53:00,73.6,62.0,29.96,South,185,0.0,0.0,67,0.00,,---,0.00,VWS V13.01,2013-08-28 13:53:00,
2013-08-28 09:58:00,73.8,62.1,29.96,South,185,0.0,0.0,67,0.00,,---,0.00,VWS V13.01,2013-08-28 13:58:00,
2013-08-28 10:03:00,73.9,62.3,29.96,South,185,0.0,0.0,67,0.00,,---,0.00,VWS V13.01,2013-08-28 14:03:00,
2013-08-28 10:08:00,73.9,62.3,29.96,South,185,0.0,0.0,67,0.00,,---,0.00,VWS V13.01,2013-08-28 14:08:00,
2013-08-28 10:13:00,73.9,62.3,29.96,South,185,0.0,0.0,67,0.00,,---,0.00,VWS V13.01,2013-08-28 14:13:00,
2013-08-28 10:18:00,73.9,62.3,29.96,South,185,0.0,0.0,67,0.00,,---,0.00,VWS V13.01,2013-08-28 14:18:00,
2013-08-28 10:23:00,73.8,62.1,29.96,South,185,0.0,0.0,67,0.00,,---,0.00,VWS V13.01,2013-08-28 14:23:00,
2013-08-28 10:28:00,73.8,62.1,29.96,South,185,0.0,0.0,67,0.00,,---,0.00,VWS V13.01,2013-08-28 14:28:00,
2013-08-28 10:33:00,73.6,62.4,29.96,South,185,0.0,0.0,68,0.00,,---,0.00,VWS V13.01,2013-08-28 14:33:00,
2013-08-28 10:38:00,73.4,62.2,29.96,South,185,0.0,0.0,68,0.00,,---,0.00,VWS V13.01,2013-08-28 14:38:00,
2013-08-28 10:43:00,73.4,62.2,29.96,South,185,0.0,0.0,68,0.00,,---,0.00,VWS V13.01,2013-08-28 14:43:00,
2013-08-28 10:48:00,73.2,62.5,29.96,South,185,0.0,0.0,69,0.00,,---,0.00,VWS V13.01,2013-08-28 14:48:00,
2013-08-28 10:53:00,73.2,62.5,29.96,South,185,0.0,0.0,69,0.00,,---,0.00,VWS V13.01,2013-08-28 14:53:00,
2013-08-28 10:58:00,73.0,62.7,29.96,South,185,0.0,0.0,70,0.00,,---,0.00,VWS V13.01,2013-08-28 14:58:00,
2013-08-28 11:03:00,73.2,62.9,29.96,South,185,0.0,0.0,70,0.00,,---,0.00,VWS V13.01,2013-08-28 15:03:00,
2013-08-28 11:08:00,73.4,63.0,29.96,South,185,0.0,0.0,70,0.00,,---,0.00,VWS V13.01,2013-08-28 15:08:00,
2013-08-28 11:13:00,73.6,64.4,29.96,South,185,0.0,0.0,73,0.00,,---,0.00,VWS V13.01,2013-08-28 15:13:00,
2013-08-28 11:18:00,73.8,64.6,29.96,South,185,0.0,0.0,73,0.00,,---,0.00,VWS V13.01,2013-08-28 15:18:00,
2013-08-28 11:23:00,73.9,64.8,29.96,South,185,0.0,0.0,73,0.00,,---,0.00,VWS V13.01,2013-08-28 15:23:00,
2013-08-28 11:28:00,74.1,64.9,29.96,South,185,0.0,0.0,73,0.00,,---,0.00,VWS V13.01,2013-08-28 15:28:00,
2013-08-28 11:33:00,74.1,64.9,29.96,South,185,0.0,0.0,73,0.00,,---,0.00,VWS V13.01,2013-08-28 15:33:00,
2013-08-28 11:38:00,74.3,65.5,29.96,South,185,0.0,0.0,74,0.00,,---,0.00,VWS V13.01,2013-08-28 15:38:00,
2013-08-28 11:43:00,74.5,65.7,29.96,South,185,0.0,0.0,74,0.00,,---,0.00,VWS V13.01,2013-08-28 15:43:00,
2013-08-28 11:48:00,74.8,66.4,29.96,South,185,0.0,0.0,75,0.00,,---,0.00,VWS V13.01,2013-08-28 15:48:00,
2013-08-28 11:53:00,75.2,66.7,29.96,South,185,0.0,0.0,75,0.00,,---,0.00,VWS V13.01,2013-08-28 15:53:00,
2013-08-28 11:58:00,75.7,67.3,29.96,South,185,0.0,0.0,75,0.00,,---,0.00,VWS V13.01,2013-08-28 15:58:00,
2013-08-28 12:03:00,75.9,67.4,29.96,South,185,0.0,0.0,75,0.00,,---,0.00,VWS V13.01,2013-08-28 16:03:00,
2013-08-28 12:08:00,76.3,67.8,29.96,South,185,0.0,0.0,75,0.00,,---,0.00,VWS V13.01,2013-08-28 16:08:00,
2013-08-28 12:13:00,76.5,67.9,29.96,South,185,0.0,0.0,75,0.00,,---,0.00,VWS V13.01,2013-08-28 16:13:00,
2013-08-28 12:18:00,76.8,67.9,29.96,South,185,0.0,0.0,74,0.00,,---,0.00,VWS V13.01,2013-08-28 16:18:00,
2013-08-28 12:23:00,77.2,68.3,29.96,South,184,0.0,0.0,74,0.00,,---,0.00,VWS V13.01,2013-08-28 16:23:00,
2013-08-28 12:28:00,77.7,68.4,29.96,South,184,0.0,0.0,73,0.00,,---,0.00,VWS V13.01,2013-08-28 16:28:00,
2013-08-28 12:33:00,79.2,69.4,29.96,South,183,0.0,0.0,72,0.00,,---,0.00,VWS V13.01,2013-08-28 16:33:00,
2013-08-28 12:38:00,80.1,69.0,29.96,South,183,0.0,0.0,69,0.00,,---,0.00,VWS V13.01,2013-08-28 16:38:00,
2013-08-28 12:43:00,80.8,67.9,29.96,NNW,335,0.0,0.0,65,0.00,,---,0.00,VWS V13.01,2013-08-28 16:43:00,
2013-08-28 12:49:00,81.0,66.7,29.96,NNW,335,0.0,0.0,62,0.00,,---,0.00,VWS V13.01,2013-08-28 16:49:00,
2013-08-28 12:54:00,80.8,65.6,29.96,NNW,335,0.0,0.0,60,0.00,,---,0.00,VWS V13.01,2013-08-28 16:54:00,
2013-08-28 12:59:00,81.0,65.8,29.96,North,353,0.0,0.0,60,0.00,,---,0.00,VWS V13.01,2013-08-28 16:59:00,
2013-08-28 13:04:00,81.0,65.3,29.96,North,353,0.0,0.0,59,0.00,,---,0.00,VWS V13.01,2013-08-28 17:04:00,
2013-08-28 13:09:00,81.0,64.3,29.96,North,353,0.0,0.0,57,0.00,,---,0.00,VWS V13.01,2013-08-28 17:09:00,
2013-08-28 13:14:00,81.9,65.2,29.96,ESE,119,0.0,0.0,57,0.00,,---,0.00,VWS V13.01,2013-08-28 17:14:00,
2013-08-28 13:19:00,82.4,64.6,29.96,SE,145,0.0,0.0,55,0.00,,---,0.00,VWS V13.01,2013-08-28 17:19:00,
2013-08-28 13:24:00,83.1,63.1,29.96,SE,139,0.0,0.0,51,0.00,,---,0.00,VWS V13.01,2013-08-28 17:24:00,
2013-08-28 13:29:00,82.9,61.2,29.96,SSE,159,0.0,0.0,48,0.00,,---,0.00,VWS V13.01,2013-08-28 17:29:00,
2013-08-28 13:34:00,83.1,62.6,29.96,NNW,334,3.6,3.6,50,0.00,,---,0.00,VWS V13.01,2013-08-28 17:34:00,
2013-08-28 13:39:00,83.3,62.7,29.96,North,4,0.0,0.0,50,0.00,,---,0.00,VWS V13.01,2013-08-28 17:39:00,
2013-08-28 13:44:00,84.6,62.1,29.96,North,2,0.0,0.0,47,0.00,,---,0.00,VWS V13.01,2013-08-28 17:44:00,
2013-08-28 13:49:00,84.4,60.7,29.96,North,4,0.0,0.0,45,0.00,,---,0.00,VWS V13.01,2013-08-28 17:49:00,
2013-08-28 13:54:00,83.5,59.9,29.96,North,4,0.0,0.0,45,0.00,,---,0.00,VWS V13.01,2013-08-28 17:54:00,
2013-08-28 13:59:00,82.9,60.7,29.96,North,4,0.0,0.0,47,0.00,,---,0.00,VWS V13.01,2013-08-28 17:59:00,
2013-08-28 14:04:00,82.9,60.7,29.96,North,357,2.7,2.7,47,0.00,,---,0.00,VWS V13.01,2013-08-28 18:04:00,
2013-08-28 14:09:00,82.4,60.8,29.96,North,4,0.0,0.0,48,0.00,,---,0.00,VWS V13.01,2013-08-28 18:09:00,
2013-08-28 14:14:00,82.2,61.2,29.96,NNE,20,0.0,0.0,49,0.00,,---,0.00,VWS V13.01,2013-08-28 18:14:00,
2013-08-28 14:19:00,82.4,60.8,29.96,NNE,23,0.0,0.0,48,0.00,,---,0.00,VWS V13.01,2013-08-28 18:19:00,
2013-08-28 14:24:00,82.4,60.8,29.96,NNE,20,0.0,0.0,48,0.00,,---,0.00,VWS V13.01,2013-08-28 18:24:00,
2013-08-28 14:29:00,82.4,61.3,29.96,North,8,0.0,0.0,49,0.00,,---,0.00,VWS V13.01,2013-08-28 18:29:00,
2013-08-28 14:34:00,82.2,61.8,29.96,North,8,0.0,0.0,50,0.00,,---,0.00,VWS V13.01,2013-08-28 18:34:00,
2013-08-28 14:39:00,82.0,61.6,29.96,NNE,16,0.0,0.0,50,0.00,,---,0.00,VWS V13.01,2013-08-28 18:39:00,
2013-08-28 14:44:00,82.0,62.1,29.96,NNE,16,0.0,0.0,51,0.00,,---,0.00,VWS V13.01,2013-08-28 18:44:00,
2013-08-28 14:49:00,82.0,62.1,29.96,NNE,16,0.0,0.0,51,0.00,,---,0.00,VWS V13.01,2013-08-28 18:49:00,
2013-08-28 14:54:00,82.2,62.3,29.96,North,353,0.0,0.0,51,0.00,,---,0.00,VWS V13.01,2013-08-28 18:54:00,
2013-08-28 14:59:00,82.2,62.3,29.96,North,353,0.0,0.0,51,0.00,,---,0.00,VWS V13.01,2013-08-28 18:59:00,
2013-08-28 15:04:00,81.9,60.8,29.96,North,353,0.0,0.0,49,0.00,,---,0.00,VWS V13.01,2013-08-28 19:04:00,
2013-08-28 15:09:00,81.7,60.7,29.96,North,353,0.0,0.0,49,0.00,,---,0.00,VWS V13.01,2013-08-28 19:09:00,
2013-08-28 15:14:00,81.3,60.9,29.96,NW,325,0.0,0.0,50,0.00,,---,0.00,VWS V13.01,2013-08-28 19:14:00,
2013-08-28 15:19:00,81.1,60.8,29.96,NW,325,0.0,0.0,50,0.00,,---,0.00,VWS V13.01,2013-08-28 19:19:00,
2013-08-28 15:24:00,81.0,61.2,29.96,NW,325,0.0,0.0,51,0.00,,---,0.00,VWS V13.01,2013-08-28 19:24:00,
2013-08-28 15:29:00,81.1,61.9,29.96,NW,324,0.0,0.0,52,0.00,,---,0.00,VWS V13.01,2013-08-28 19:29:00,
2013-08-28 15:34:00,81.7,62.4,29.96,NW,324,0.0,0.0,52,0.00,,---,0.00,VWS V13.01,2013-08-28 19:34:00,
2013-08-28 15:39:00,82.6,62.6,29.96,NW,324,0.0,0.0,51,0.00,,---,0.00,VWS V13.01,2013-08-28 19:39:00,
2013-08-28 15:44:00,84.0,62.2,29.96,North,357,0.0,0.0,48,0.00,,---,0.00,VWS V13.01,2013-08-28 19:44:00,
2013-08-28 15:49:00,84.0,62.2,29.96,NNE,12,0.0,0.0,48,0.00,,---,0.00,VWS V13.01,2013-08-28 19:49:00,
2013-08-28 15:54:00,85.3,60.9,29.96,NNE,16,0.0,0.0,44,0.00,,---,0.00,VWS V13.01,2013-08-28 19:54:00,
2013-08-28 15:59:00,85.3,60.9,29.96,NNE,15,0.0,0.0,44,0.00,,---,0.00,VWS V13.01,2013-08-28 19:59:00,
2013-08-28 16:04:00,85.1,60.8,29.96,North,349,0.0,0.0,44,0.00,,---,0.00,VWS V13.01,2013-08-28 20:04:00,
2013-08-28 16:09:00,84.4,60.1,29.96,North,357,0.0,0.0,44,0.00,,---,0.00,VWS V13.01,2013-08-28 20:09:00,
2013-08-28 16:14:00,83.7,60.7,29.96,NNE,14,0.0,0.0,46,0.00,,---,0.00,VWS V13.01,2013-08-28 20:14:00,
2013-08-28 16:19:00,83.3,61.0,29.96,NNE,14,0.0,0.0,47,0.00,,---,0.00,VWS V13.01,2013-08-28 20:19:00,
2013-08-28 16:24:00,82.8,60.5,29.96,NNE,14,0.0,0.0,47,0.00,,---,0.00,VWS V13.01,2013-08-28 20:24:00,
2013-08-28 16:29:00,82.4,60.2,29.96,NNE,14,0.0,0.0,47,0.00,,---,0.00,VWS V13.01,2013-08-28 20:29:00,
2013-08-28 16:34:00,82.0,60.4,29.96,WNW,286,0.0,0.0,48,0.00,,---,0.00,VWS V13.01,2013-08-28 20:34:00,
2013-08-28 16:39:00,81.7,60.7,29.96,WNW,286,0.0,0.0,49,0.00,,---,0.00,VWS V13.01,2013-08-28 20:39:00,
2013-08-28 16:44:00,81.3,60.9,29.96,WNW,286,0.0,0.0,50,0.00,,---,0.00,VWS V13.01,2013-08-28 20:44:00,
2013-08-28 16:49:00,81.0,62.8,29.96,WNW,286,0.0,0.0,54,0.00,,---,0.00,VWS V13.01,2013-08-28 20:49:00,
2013-08-28 16:54:00,81.0,63.3,29.96,WNW,286,0.0,0.0,55,0.00,,---,0.00,VWS V13.01,2013-08-28 20:54:00,
2013-08-28 16:59:00,81.7,64.0,29.96,North,357,0.0,0.0,55,0.00,,---,0.00,VWS V13.01,2013-08-28 20:59:00,
2013-08-28 17:04:00,81.9,63.6,29.96,North,357,0.0,0.0,54,0.00,,---,0.00,VWS V13.01,2013-08-28 21:04:00,
2013-08-28 17:09:00,81.9,63.6,29.96,North,357,0.0,0.0,54,0.00,,---,0.00,VWS V13.01,2013-08-28 21:09:00,
2013-08-28 17:14:00,81.9,63.6,29.96,North,357,0.0,0.0,54,0.00,,---,0.00,VWS V13.01,2013-08-28 21:14:00,
2013-08-28 17:19:00,81.7,63.4,29.96,North,357,0.0,0.0,54,0.00,,---,0.00,VWS V13.01,2013-08-28 21:19:00,
2013-08-28 17:24:00,81.9,64.1,29.96,North,357,0.0,0.0,55,0.00,,---,0.00,VWS V13.01,2013-08-28 21:24:00,
2013-08-28 17:29:00,82.2,64.5,29.96,North,10,0.0,0.0,55,0.00,,---,0.00,VWS V13.01,2013-08-28 21:29:00,
2013-08-28 17:34:00,82.4,63.0,29.96,North,10,0.0,0.0,52,0.00,,---,0.00,VWS V13.01,2013-08-28 21:34:00,
2013-08-28 17:39:00,82.8,61.7,29.96,North,10,0.0,0.0,49,0.00,,---,0.00,VWS V13.01,2013-08-28 21:39:00,
2013-08-28 17:44:00,82.8,61.7,29.96,North,10,0.0,0.0,49,0.00,,---,0.00,VWS V13.01,2013-08-28 21:44:00,
2013-08-28 17:49:00,82.8,59.9,29.96,North,6,0.0,0.0,46,0.00,,---,0.00,VWS V13.01,2013-08-28 21:49:00,
2013-08-28 17:54:00,82.9,59.4,29.96,North,6,0.0,0.0,45,0.00,,---,0.00,VWS V13.01,2013-08-28 21:54:00,
2013-08-28 17:59:00,83.1,59.6,29.96,ENE,63,4.9,4.9,45,0.00,,---,0.00,VWS V13.01,2013-08-28 21:59:00,
2013-08-28 18:04:00,83.1,59.6,29.96,North,357,0.0,0.0,45,0.00,,---,0.00,VWS V13.01,2013-08-28 22:04:00,
2013-08-28 18:09:00,83.1,59.6,29.96,North,357,0.0,0.0,45,0.00,,---,0.00,VWS V13.01,2013-08-28 22:09:00,
2013-08-28 18:14:00,82.9,58.8,29.96,NNW,332,0.0,0.0,44,0.00,,---,0.00,VWS V13.01,2013-08-28 22:14:00,
2013-08-28 18:19:00,82.4,59.0,29.96,North,8,0.0,0.0,45,0.00,,---,0.00,VWS V13.01,2013-08-28 22:19:00,
2013-08-28 18:24:00,82.0,59.8,29.96,ENE,76,0.0,0.0,47,0.00,,---,0.00,VWS V13.01,2013-08-28 22:24:00,
2013-08-28 18:29:00,82.0,59.8,29.96,NE,41,2.2,2.2,47,0.00,,---,0.00,VWS V13.01,2013-08-28 22:29:00,
2013-08-28 18:34:00,81.5,59.9,29.96,North,353,0.0,0.0,48,0.00,,---,0.00,VWS V13.01,2013-08-28 22:34:00,
2013-08-28 18:39:00,81.3,60.3,29.96,North,353,0.0,0.0,49,0.00,,---,0.00,VWS V13.01,2013-08-28 22:39:00,
2013-08-28 18:44:00,81.3,60.3,29.96,North,353,0.0,0.0,49,0.00,,---,0.00,VWS V13.01,2013-08-28 22:44:00,
2013-08-28 18:49:00,81.3,60.9,29.96,North,353,0.0,0.0,50,0.00,,---,0.00,VWS V13.01,2013-08-28 22:49:00,
2013-08-28 18:54:00,81.1,60.8,29.96,North,353,0.0,0.0,50,0.00,,---,0.00,VWS V13.01,2013-08-28 22:54:00,
2013-08-28 18:59:00,81.0,61.2,29.96,North,353,0.0,0.0,51,0.00,,---,0.00,VWS V13.01,2013-08-28 22:59:00,
2013-08-28 19:04:00,80.6,61.4,29.96,NNE,19,0.0,0.0,52,0.00,,---,0.00,VWS V13.01,2013-08-28 23:04:00,
2013-08-28 19:09:00,80.4,61.2,29.96,NNE,26,0.0,0.0,52,0.00,,---,0.00,VWS V13.01,2013-08-28 23:09:00,
2013-08-28 19:14:00,80.1,61.9,29.96,NNE,26,0.0,0.0,54,0.00,,---,0.00,VWS V13.01,2013-08-28 23:14:00,
2013-08-28 19:19:00,79.9,61.8,29.96,NNW,339,0.0,0.0,54,0.00,,---,0.00,VWS V13.01,2013-08-28 23:19:00,
2013-08-28 19:24:00,79.7,62.6,29.96,NNW,339,0.0,0.0,56,0.00,,---,0.00,VWS V13.01,2013-08-28 23:24:00,
2013-08-28 19:29:00,79.5,62.5,29.96,NNW,339,0.0,0.0,56,0.00,,---,0.00,VWS V13.01,2013-08-28 23:29:00,
2013-08-28 19:34:00,79.3,62.8,29.96,North,4,0.0,0.0,57,0.00,,---,0.00,VWS V13.01,2013-08-28 23:34:00,
2013-08-28 19:39:00,79.2,62.6,29.96,North,4,0.0,0.0,57,0.00,,---,0.00,VWS V13.01,2013-08-28 23:39:00,
2013-08-28 19:44:00,79.0,63.0,29.96,NNE,19,0.0,0.0,58,0.00,,---,0.00,VWS V13.01,2013-08-28 23:44:00,
2013-08-28 19:49:00,79.0,63.0,29.96,NNE,19,0.0,0.0,58,0.00,,---,0.00,VWS V13.01,2013-08-28 23:49:00,
2013-08-28 19:54:00,78.8,63.3,29.96,NNE,19,0.0,0.0,59,0.00,,---,0.00,VWS V13.01,2013-08-28 23:54:00,
2013-08-28 19:59:00,78.6,63.1,29.96,NNE,19,0.0,0.0,59,0.00,,---,0.00,VWS V13.01,2013-08-28 23:59:00,
2013-08-28 20:04:00,78.6,63.1,29.96,NNE,19,0.0,0.0,59,0.00,,---,0.00,VWS V13.01,2013-08-29 00:04:00,
2013-08-28 20:09:00,78.4,63.4,29.96,NNE,22,0.0,0.0,60,0.00,,---,0.00,VWS V13.01,2013-08-29 00:09:00,
2013-08-28 20:14:00,78.3,63.2,29.96,NNE,22,0.0,0.0,60,0.00,,---,0.00,VWS V13.01,2013-08-29 00:14:00,
2013-08-28 20:19:00,78.1,63.5,29.96,NNE,22,0.0,0.0,61,0.00,,---,0.00,VWS V13.01,2013-08-29 00:19:00,
2013-08-28 20:24:00,77.9,63.4,29.96,NNE,22,0.0,0.0,61,0.00,,---,0.00,VWS V13.01,2013-08-29 00:24:00,
2013-08-28 20:29:00,77.7,64.6,29.96,NNE,22,0.0,0.0,64,0.00,,---,0.00,VWS V13.01,2013-08-29 00:29:00,
2013-08-28 20:34:00,77.7,64.6,29.96,NNE,22,0.0,0.0,64,0.00,,---,0.00,VWS V13.01,2013-08-29 00:34:00,
2013-08-28 20:39:00,77.5,64.4,29.96,NNE,22,0.0,0.0,64,0.00,,---,0.00,VWS V13.01,2013-08-29 00:39:00,
2013-08-28 20:44:00,77.5,64.4,29.96,NNE,23,0.0,0.0,64,0.00,,---,0.00,VWS V13.01,2013-08-29 00:44:00,
2013-08-28 20:49:00,77.5,64.4,29.96,NNE,28,0.0,0.0,64,0.00,,---,0.00,VWS V13.01,2013-08-29 00:49:00,
2013-08-28 20:54:00,77.4,64.2,29.96,NNE,28,0.0,0.0,64,0.00,,---,0.00,VWS V13.01,2013-08-29 00:54:00,
2013-08-28 20:59:00,77.4,64.2,29.96,NNE,28,0.0,0.0,64,0.00,,---,0.00,VWS V13.01,2013-08-29 00:59:00,
2013-08-28 21:04:00,77.4,63.8,29.96,NNE,28,0.0,0.0,63,0.00,,---,0.00,VWS V13.01,2013-08-29 01:04:00,
2013-08-28 21:09:00,77.4,63.8,29.96,NNE,24,0.0,0.0,63,0.00,,---,0.00,VWS V13.01,2013-08-29 01:09:00,
2013-08-28 21:14:00,77.5,63.0,29.96,NNE,26,0.0,0.0,61,0.00,,---,0.00,VWS V13.01,2013-08-29 01:14:00,
2013-08-28 21:19:00,77.5,63.0,29.96,NNE,26,0.0,0.0,61,0.00,,---,0.00,VWS V13.01,2013-08-29 01:19:00,
2013-08-28 21:24:00,77.5,63.0,29.96,NNE,24,3.1,3.1,61,0.00,,---,0.00,VWS V13.01,2013-08-29 01:24:00,
2013-08-28 21:29:00,77.5,62.6,29.96,NNE,24,0.0,0.0,60,0.00,,---,0.00,VWS V13.01,2013-08-29 01:29:00,
2013-08-28 21:34:00,77.4,62.4,29.96,NNE,20,2.7,2.7,60,0.00,,---,0.00,VWS V13.01,2013-08-29 01:34:00,
2013-08-28 21:39:00,77.4,61.9,29.96,NNE,20,0.0,0.0,59,0.00,,---,0.00,VWS V13.01,2013-08-29 01:39:00,
2013-08-28 21:44:00,77.2,61.8,29.96,NNE,20,0.0,0.0,59,0.00,,---,0.00,VWS V13.01,2013-08-29 01:44:00,
2013-08-28 21:49:00,77.2,61.8,29.96,NNE,20,0.0,0.0,59,0.00,,---,0.00,VWS V13.01,2013-08-29 01:49:00,
2013-08-28 21:54:00,77.2,62.7,29.96,NNE,20,0.0,0.0,61,0.00,,---,0.00,VWS V13.01,2013-08-29 01:54:00,
2013-08-28 21:59:00,77.0,62.5,29.96,NNE,20,2.7,3.1,61,0.00,,---,0.00,VWS V13.01,2013-08-29 01:59:00,
2013-08-28 22:04:00,77.0,62.5,29.96,NNE,20,0.0,0.0,61,0.00,,---,0.00,VWS V13.01,2013-08-29 02:04:00,
2013-08-28 22:09:00,77.0,63.0,29.96,NNE,20,0.0,0.0,62,0.00,,---,0.00,VWS V13.01,2013-08-29 02:09:00,
2013-08-28 22:14:00,77.0,63.5,29.96,NNE,20,0.0,0.0,63,0.00,,---,0.00,VWS V13.01,2013-08-29 02:14:00,
2013-08-28 22:19:00,76.8,63.3,29.96,NNE,20,0.0,0.0,63,0.00,,---,0.00,VWS V13.01,2013-08-29 02:19:00,
2013-08-28 22:24:00,76.8,63.3,29.96,NNE,20,0.0,0.0,63,0.00,,---,0.00,VWS V13.01,2013-08-29 02:24:00,
2013-08-28 22:29:00,76.6,63.1,29.96,NNE,20,0.0,0.0,63,0.00,,---,0.00,VWS V13.01,2013-08-29 02:29:00,
2013-08-28 22:34:00,76.6,63.6,29.96,NNE,20,0.0,0.0,64,0.00,,---,0.00,VWS V13.01,2013-08-29 02:34:00,
2013-08-28 22:39:00,76.6,63.6,29.96,NNE,20,0.0,0.0,64,0.00,,---,0.00,VWS V13.01,2013-08-29 02:39:00,
2013-08-28 22:44:00,76.5,63.4,29.96,NNE,20,0.0,0.0,64,0.00,,---,0.00,VWS V13.01,2013-08-29 02:44:00,
2013-08-28 22:49:00,76.5,63.8,29.96,NNE,20,0.0,0.0,65,0.00,,---,0.00,VWS V13.01,2013-08-29 02:49:00,
2013-08-28 22:54:00,76.5,63.8,29.96,NNE,20,0.0,0.0,65,0.00,,---,0.00,VWS V13.01,2013-08-29 02:54:00,
2013-08-28 22:59:00,76.3,63.7,29.96,NNE,20,0.0,0.0,65,0.00,,---,0.00,VWS V13.01,2013-08-29 02:59:00,
2013-08-28 23:04:00,76.3,63.7,29.96,NNE,20,0.0,0.0,65,0.00,,---,0.00,VWS V13.01,2013-08-29 03:04:00,
2013-08-28 23:09:00,76.3,63.7,29.96,NNE,20,0.0,0.0,65,0.00,,---,0.00,VWS V13.01,2013-08-29 03:09:00,
2013-08-28 23:14:00,76.1,63.5,29.96,NNE,20,0.0,0.0,65,0.00,,---,0.00,VWS V13.01,2013-08-29 03:14:00,
2013-08-28 23:19:00,76.1,63.5,29.96,NNE,20,0.0,0.0,65,0.00,,---,0.00,VWS V13.01,2013-08-29 03:19:00,
2013-08-28 23:24:00,76.1,63.5,29.96,NNE,20,0.0,0.0,65,0.00,,---,0.00,VWS V13.01,2013-08-29 03:24:00,
2013-08-28 23:29:00,76.1,63.5,29.96,NNE,20,0.0,0.0,65,0.00,,---,0.00,VWS V13.01,2013-08-29 03:29:00,
2013-08-28 23:34:00,76.1,63.5,29.96,NNE,20,0.0,0.0,65,0.00,,---,0.00,VWS V13.01,2013-08-29 03:34:00,
2013-08-28 23:39:00,76.1,63.5,29.96,NNE,20,0.0,0.0,65,0.00,,---,0.00,VWS V13.01,2013-08-29 03:39:00,
2013-08-28 23:44:00,76.1,63.0,29.96,NNE,20,0.0,0.0,64,0.00,,---,0.00,VWS V13.01,2013-08-29 03:44:00,
2013-08-28 23:49:00,76.1,63.0,29.96,NNE,20,0.0,0.0,64,0.00,,---,0.00,VWS V13.01,2013-08-29 03:49:00,
2013-08-28 23:54:00,75.9,62.9,29.96,NNE,20,0.0,0.0,64,0.00,,---,0.00,VWS V13.01,2013-08-29 03:54:00,
2013-08-28 23:59:00,75.9,62.9,29.96,NNE,20,0.0,0.0,64,0.00,,---,0.00,VWS V13.01,2013-08-29 03:59:00,